Location: Newark
(41.6500°N, 71.4833°W)
Time: 13:37:49
(UTC+00:00)

deb Explorer IX - Pass Details

Date: 31 January 2020
Orbit: 549 x 1099 km, 38.8° (Epoch: 24 February)

Event Time Altitude Azimuth Distance (km) Brightness Sun altitude
Rises 22:12:59 0° 200° (SSW) 3,231 ? -3.1°
Reaches altitude 10° 22:16:07 10° 181° (S) 2,418 ? -3.7°
Maximum altitude 22:19:49 17° 141° (SE) 2,062 ? -4.3°
Drops below altitude 10° 22:23:50 10° 102° (ESE) 2,673 ? -5.0°
Enters shadow 22:25:56 - 90° (E) 3,243 ? -5.4°
Sets 22:27:32 0° 84° (E) 3,724 - -5.7°
